Printer-friendly version

IAU Minor Planet Center

Minor Planet Center

MPEC 2001-U42: S/2000 S 3

The following Minor Planet Electronic Circular may be linked-to from your own Web pages, but must not otherwise be redistributed electronically.


Read MPEC 2001-U41 Read MPEC 2001-U43


M.P.E.C. 2001-U42                                Issued 2001 Oct. 23, 22:10 UT

     The Minor Planet Electronic Circulars contain information on unusual
         minor planets and routine data on comets.  They are published
   on behalf of Commission 20 of the International Astronomical Union by the
          Minor Planet Center, Smithsonian Astrophysical Observatory,
                          Cambridge, MA 02138, U.S.A.

             Prepared using the Tamkin Foundation Computer Network

                              MPC@CFA.HARVARD.EDU
          URL http://cfa-www.harvard.edu/iau/mpc.html  ISSN 1523-6714

                                  S/2000 S 3

                           Revision to MPEC 2000-Y14

Observations:
    SK00S030  C2001 10 17.30927 04 53 54.41 +20 24 53.6                      696
    SK00S030  C2001 10 17.32688 04 53 54.22 +20 24 53.1                      696
    SK00S030  C2001 10 17.34318 04 53 54.07 +20 24 52.4                      696
    SK00S030  C2001 10 20.32250 04 53 22.12 +20 23 00.0          19.9 R      696
    SK00S030  C2001 10 20.34288 04 53 21.90 +20 22 59.2          20.0 R      696
    SK00S030  C2001 10 22.32056 04 52 58.62 +20 21 41.9                      696
    SK00S030  C2001 10 22.33743 04 52 58.40 +20 21 41.2                      696

Observer details:
696 Whipple Observatory, Mt. Hopkins.  Observers M. Holman, B. Gladman,
    T. Grav.  1.2-m reflector + CCD.

Orbital elements:
S/2000 S 3
Epoch 2001 Oct. 18.0 TT = JDT 2452200.5                 Marsden
M  95.76220              (2000.0)            P               Q
n   0.39267207     Peri.   65.94181     -0.36204168     -0.64644029
a   0.1216691      Node    63.72412     +0.30906902     -0.76296193
e   0.3804753      Incl.   48.50265     +0.87943287     +0.00201216
P   2.51           H   10.6           P/d   916.80
Residuals in seconds of arc
000923 568  0.4+  0.5+    000927 693  0.3-  0.6-    010119 675  0.1+  0.2+
000923 568  0.1+  0.6+    000929 809  0.6-  0.5-    010215 950  0.7-  0.2-
000923 568  0.1+  0.5+    000929 809  0.7-  0.5-    010215 950  0.7-  0.2-
000924 568  0.3+  0.6+    000929 809  0.5-  0.5-    011017 696  0.0   0.1+
000924 568  0.2+  0.6+    001216 695  0.0   0.3-    011017 696  0.2-  0.2+
000924 568  0.1+  0.6+    001216 695  0.0   0.2-    011017 696  0.1+  0.1+
000925 697  1.0+  0.2+    001216 695  0.1+  0.1-    011020 696  0.2-  0.0
000925 697  0.1+  0.2+    001217 695  0.1+  0.2+    011020 696  0.0   0.0
000927 693  0.3-  0.6-    010119 675  0.1+  0.2+    011022 696  0.1+  0.1+
000927 693  0.3-  0.5-    010119 675  0.3+  0.2+    011022 696  0.0   0.0

Ephemeris:
    S/2000 S 3                                                   q = 0.0754
Date    TT    R. A. (2000) Decl.     Delta     r_S   dR.A. ("/m)  dDecl.m1"/')
2001 10 18    04 53.79   +20 24.5    8.262    0.142    48-/0.06-  1029-/ 17.2-
2001 10 28    04 51.72   +20 17.8    8.146    0.144   173-/0.20-  1194-/ 19.9-
2001 11 07    04 49.02   +20 10.4    8.053    0.146   306-/0.36-  1358-/ 22.6-
2001 11 17    04 45.84   +20 02.3    7.988    0.148   445-/0.53-  1518-/ 25.3-
2001 11 27    04 42.34   +19 54.0    7.953    0.150   584-/0.69-  1673-/ 27.9-
2001 12 07    04 38.71   +19 45.7    7.950    0.152   720-/0.85-  1819-/ 30.3-
2001 12 17    04 35.16   +19 37.9    7.979    0.154   847-/1.00-  1953-/ 32.6-
2001 12 27    04 31.89   +19 31.0    8.039    0.156   962-/1.13-  2074-/ 34.6-
2002 01 06    04 29.07   +19 25.5    8.128    0.158  1063-/1.25-  2180-/ 36.3-
2002 01 16    04 26.86   +19 21.6    8.242    0.159  1148-/1.35-  2270-/ 37.8-
2002 01 26    04 25.35   +19 19.7    8.377    0.160  1218-/1.43-  2345-/ 39.1-
2002 02 05    04 24.63   +19 19.7    8.527    0.162  1273-/1.50-  2405-/ 40.1-
2002 02 15    04 24.70   +19 21.8    8.690    0.163  1315-/1.55-  2453-/ 40.9-
2002 02 25    04 25.58   +19 25.9    8.857    0.164  1348-/1.59-  2490-/ 41.5-
2002 03 07    04 27.23   +19 31.6    9.026    0.165  1372-/1.62-  2518-/ 42.0-
2002 03 17    04 29.60   +19 38.9    9.192    0.166  1391-/1.64-  2539-/ 42.3-
2002 03 27    04 32.63   +19 47.2    9.349    0.166  1407-/1.66-  2554-/ 42.6-
2002 04 06    04 36.24   +19 56.5    9.495    0.167  1421-/1.68-  2566-/ 42.8-
2002 04 16    04 40.37   +20 06.2    9.626    0.167  1435-/1.70-  2575-/ 42.9-

Brian G. Marsden             (C) Copyright 2001 MPC           M.P.E.C. 2001-U42

Read MPEC 2001-U41 Read MPEC 2001-U43


Our Web policy. Index to the CBAT/MPC/ICQ pages.


Valid HTML 4.01!